Flag for China Weather past 2 weeks in Taiyuan, Shanxi, China

Now
64 °F

Fog.


Feels Like: 64 °F
Forecast: 58 / 80 °F
Wind: 1 mph from South

Location: Taiyuan Airport

Current Time: Sep 5, 2015 at 3:18:51 AM

Latest Report: Sep 5, 2015 at 3:00 AM


Visibility: 2 mi

Pressure: 29.89 "Hg (27.24 "Hg at 790m altitude)

Humidity: 88%

Dew point: 61 °F

Location of TaiyuanLocation

Historic Weather in Taiyuan — Graph

°F

Taiyuan temperature yesterday

Maximum temperature yesterday: 70 °F (at 12:00 AM)
Minimum temperature yesterday: 63 °F (at 6:30 AM)
Average temperature yesterday: 65 °F

Past Weeks' High & Low Weather Summary

 TemperatureHumidityPressure
High88 °F (Aug 22, 3:00 PM)94% (Aug 27, 4:00 AM)30.09 "Hg (Aug 27, 4:00 AM)
Low55 °F (Sep 2, 5:00 AM)17% (Aug 22, 3:00 PM)29.74 "Hg (Aug 22, 3:00 PM)
Average70 °F61%29.92 "Hg
* Reported Aug 21 2:00 AM — Sep 5 2:00 AM, Taiyuan, Weather by CustomWeather, © 2015

Note: Actual official high and low records may vary slightly from our data, if they occured in-between our weather recording intervals... More about our weather records

Advertising

Taiyuan weather history for previous 24 hours

 ConditionsComfort  
Time TempWeatherWind HumidityBarometerVisibility
2:00 AM
Sat, Sep 5
64 °FPassing clouds.1 mph88%29.89 "Hg5 mi
1:30 AM64 °FPassing clouds.1 mph88%29.89 "HgN/A
1:00 AM64 °FPassing clouds.1 mph88%29.89 "HgN/A
12:30 AM64 °FPassing clouds.1 mph88%29.89 "HgN/A
12:00 AM64 °FPassing clouds.1 mph88%29.92 "HgN/A
11:30 PM
Fri, Sep 4
64 °FPassing clouds.No wind88%29.89 "HgN/A
11:00 PM64 °FPassing clouds.1 mph88%29.89 "HgN/A
10:30 PM64 °FPassing clouds.1 mph88%29.89 "HgN/A
10:00 PM64 °FPassing clouds.1 mph88%29.92 "HgN/A
9:30 PM64 °FPassing clouds.1 mph88%29.92 "HgN/A
9:00 PM64 °FPassing clouds.1 mph88%29.92 "HgN/A
8:30 PM64 °FPassing clouds.1 mph88%29.92 "HgN/A
8:00 PM64 °FPassing clouds.1 mph88%29.89 "HgN/A
7:30 PM64 °FPassing clouds.1 mph88%29.89 "HgN/A
7:00 PM64 °FPassing clouds.1 mph88%29.89 "HgN/A
6:30 PM64 °FScattered clouds.1 mph83%29.89 "HgN/A
6:00 PM64 °FScattered clouds.1 mph83%29.89 "HgN/A
5:30 PM66 °FScattered clouds.3 mph78%29.89 "HgN/A
5:00 PM64 °FScattered clouds.3 mph83%29.89 "HgN/A
4:30 PM64 °FScattered clouds.3 mph83%29.89 "HgN/A
4:00 PM64 °FScattered clouds.3 mph83%29.89 "HgN/A
3:30 PM64 °FPartly sunny.3 mph83%29.89 "HgN/A
3:00 PM64 °FPartly sunny.3 mph83%29.89 "HgN/A
2:30 PM64 °FLight rain. Partly sunny.6 mph83%29.92 "HgN/A
2:00 PM64 °FLight rain. Partly sunny.6 mph88%29.92 "HgN/A
1:30 PM64 °FLight rain. Scattered clouds.6 mph83%29.92 "HgN/A
1:00 PM64 °FScattered clouds.6 mph83%29.92 "HgN/A
12:30 PM63 °FLight rain. Overcast.6 mph88%29.92 "HgN/A
12:00 PM63 °FLight rain. Overcast.8 mph88%29.95 "HgN/A
11:30 AM63 °FLight rain. Fog.10 mph88%29.95 "Hg3 mi
11:00 AM63 °FLight rain. Fog.8 mph88%29.95 "Hg3 mi
10:30 AM63 °FLight rain. Fog.6 mph88%29.98 "Hg2 mi
10:00 AM63 °FLight rain. Fog.8 mph88%29.98 "Hg2 mi
9:30 AM63 °FLight rain. Fog.8 mph88%29.95 "Hg1 mi
9:00 AM64 °FLight rain. Fog.6 mph88%29.95 "Hg2 mi
8:30 AM64 °FLight rain. Fog.8 mph88%29.95 "Hg2 mi
8:00 AM64 °FLight rain. Fog.6 mph88%29.95 "Hg2 mi
7:30 AM64 °FLight rain. Fog.3 mph88%29.95 "Hg2 mi
7:00 AM63 °FLight rain. Fog.3 mph94%29.98 "Hg2 mi
6:30 AM63 °FLight rain. Fog.3 mph94%29.95 "Hg2 mi
5:00 AM64 °FLight rain. Overcast.3 mph88%29.98 "Hg4 mi
4:30 AM64 °FLight rain. Overcast.3 mph88%29.98 "Hg4 mi
4:00 AM66 °FLight rain. Overcast.3 mph83%29.98 "HgN/A
3:30 AM66 °FLight rain. Overcast.6 mph78%29.98 "HgN/A
3:00 AM68 °FLight rain. Overcast.8 mph69%29.98 "HgN/A
Weather by CustomWeather, © 2015

See weather overviewHow to use our weather pages